Flag for Brazil Weather past 2 weeks in Maceió, Alagoas, Brazil

Now
90 °F

Scattered clouds.


Feels Like: 96 °F
Forecast: 77 / 89 °F
Wind: 12 mph from Southeast

Location: Maceio Aeroporto

Current Time: Apr 25, 2015 at 1:16:58 PM

Latest Report: Apr 25, 2015 at 12:00 PM


Visibility: N/A

Pressure: 29.95 "Hg

Humidity: 55%

Dew point: 72 °F

Location of MaceióLocation

Historic Weather in Maceió — Graph

°F

Maceió temperature yesterday

Maximum temperature yesterday: 90 °F (at 11:00 AM)
Minimum temperature yesterday: 73 °F (at 5:00 AM)
Average temperature yesterday: 81 °F

Past Weeks' High & Low Weather Summary

 TemperatureHumidityPressure
High91 °F (Apr 10, 1:00 PM)100% (Apr 11, 3:00 AM)30.01 "Hg (Apr 11, 3:00 AM)
Low68 °F (Apr 14, 4:00 AM)40% (Apr 18, 4:00 PM)29.80 "Hg (Apr 22, 5:00 AM)
Average79 °F78%29.93 "Hg
* Reported Apr 10 12:00 Noon — Apr 25 12:00 Noon, Maceió, Weather by CustomWeather, © 2015

Note: Actual official high and low records may vary slightly from our data, if they occured in-between our weather recording intervals... More about our weather records

Advertising

Maceió weather history for previous 24 hours

 ConditionsComfort  
Time TempWeatherWind HumidityBarometerVisibility
12:00 PM
Sat, Apr 25
90 °FScattered clouds.12 mph55%29.95 "HgN/A
11:00 AM88 °FScattered clouds.10 mph55%29.98 "HgN/A
10:00 AM86 °FScattered clouds.8 mph59%30.01 "HgN/A
9:00 AM84 °FScattered clouds.8 mph66%30.01 "HgN/A
8:00 AM82 °FPassing clouds.5 mph74%30.01 "HgN/A
7:00 AM77 °FPassing clouds.2 mph94%30.01 "HgN/A
6:00 AM73 °FPassing clouds.3 mph94%29.98 "HgN/A
5:00 AM73 °FPassing clouds.3 mph94%29.95 "HgN/A
4:00 AM73 °FClear.3 mph94%29.95 "Hg10 mi
3:00 AM73 °FClear.3 mph100%29.95 "Hg10 mi
2:00 AM75 °FClear.3 mph94%29.95 "Hg10 mi
1:00 AM75 °FPassing clouds.3 mph94%29.98 "HgN/A
12:00 AM75 °FPassing clouds.No wind94%29.98 "HgN/A
11:00 PM
Fri, Apr 24
77 °FPassing clouds.3 mph94%30.01 "HgN/A
10:00 PM77 °FPassing clouds.3 mph89%30.01 "HgN/A
9:00 PM77 °FPassing clouds.5 mph94%30.01 "HgN/A
8:00 PM79 °FPassing clouds.6 mph89%30.01 "HgN/A
7:00 PM79 °FPassing clouds.6 mph84%29.98 "HgN/A
6:00 PM81 °FPassing clouds.7 mph79%29.95 "HgN/A
5:00 PM82 °FPassing clouds.13 mph74%29.95 "HgN/A
4:00 PM86 °FScattered clouds.16 mph62%29.92 "HgN/A
3:00 PM88 °FScattered clouds.15 mph59%29.92 "HgN/A
2:00 PM90 °FScattered clouds.17 mph55%29.92 "HgN/A
1:00 PM90 °FScattered clouds.9 mph52%29.95 "HgN/A
Weather by CustomWeather, © 2015

See weather overviewHow to use our weather pages